Hourly Data Report for September 23, 2019

All times are specified in Local Standard Time (LST). Add 1 hour to adjust for Daylight Saving Time where and when it is observed.

EUREKA CLIMATE
NUNAVUT
Current Station Operator: ECCC - MSC

79°59'21.000" N
85°56'02.000" W
10.00 m
2401199
71613
NEK

Download Data

Hourly Data (September 2019)
Hourly Data Report for September 23, 2019
TIME Temp Definition
°C
Dew Point Definition
°C
Rel Hum Definition
%
Wind Dir Definition
10's deg

Wind Spd Definition
km/h
Visibility Definition
km
Stn Press Definition
kPa
Hmdx Definition


Wind Chill Definition


Weather Definition


00:00 -7.7 -9.0 90 35 12   99.88   -13 LegendNANA
01:00 -8.3 -9.5 91 35 15   99.83   -15 LegendNANA
02:00 -8.5 -9.5 92 34 11   99.76   -14 LegendNANA
03:00 -8.8 -10.0 91 33 12   99.75   -14 LegendNANA
04:00 -8.9 -10.2 90 34 11   99.70   -14 LegendNANA
05:00 -8.9 -10.2 90 34 11   99.65   -14 LegendNANA
06:00 -9.0 -10.1 92 34 10   99.59   -14 LegendNANA
07:00 -9.2 -10.5 90 33 4   99.51   -11 LegendNANA
08:00 -8.7 -10.1 89 33 5   99.45   -11 LegendNANA
09:00 -8.8 -10.3 89 7 2   99.37   -10 LegendNANA
10:00 -8.2 -10.0 87 29 5   99.31   -11 LegendNANA
11:00 -8.3 -10.0 88 33 5   99.28   -11 LegendNANA
12:00 -8.1 -10.0 86 4 9   99.23   -13 LegendNANA
13:00 -8.1 -9.9 87 1 5   99.22   -11 LegendNANA
14:00 -8.3 -9.9 88 30 11   99.22   -14 LegendNANA
15:00 -8.5 -10.3 87 2 6   99.21   -12 LegendNANA
16:00 -8.6 -10.1 89 32 8   99.21   -13 LegendNANA
17:00 -9.0 -10.5 89 34 5   99.25   -12 LegendNANA
18:00 -9.2 -10.5 90 32 6   99.29   -13 LegendNANA
19:00 -9.1 -10.3 91 31 7   99.29   -13 LegendNANA
20:00 -9.2 -10.6 90 30 6   99.33   -13 LegendNANA
21:00 -9.0 -10.2 91 27 3   99.33   -11 LegendNANA
22:00 -9.2 -10.5 91 9 2   99.33   -10 LegendNANA
23:00 -9.2 -10.2 92 7 4   99.34   -11 LegendNANA

Notes on Data Quality.

Legend

  • E = Estimated
  • M = Missing
  • NA = Not Available
Date modified: